This demonstration page uses our WeatherBlox Daily Observations layout. Learn more.

Left ArrowRight Arrow

Hourly Observations for September 8, 2021

Temp ( °F °C ) Dew Point ( °F °C ) Humidity (%) Winds ( mph kmh ) Pressure ( in mb ) Visibility ( mi km ) Precip ( " mm )
12:51 am 00:51 Clear 75 23.9 60 15.6 60 60 S 6 9 29.81 1009 10 16 N/A
1:51 am 01:51 Clear 77 25 57 13.9 50 50 E 9 15 29.82 1010 10 16 N/A
2:51 am 02:51 Clear 75 23.9 58 14.4 55 55 E 8 13 29.82 1010 10 16 N/A
3:51 am 03:51 Clear 75 23.9 58 14.4 55 55 ESE 6 9 29.83 1010 10 16 N/A
4:51 am 04:51 Clear 68 20 61 16.1 78 78 N 5 7 29.86 1011 10 16 N/A
5:51 am 05:51 Clear 70 21.1 60 15.6 71 71 SSE 6 9 29.88 1012 10 16 N/A
6:51 am 06:51 Sunny 72 22.2 61 16.1 68 68 S 5 7 29.90 1012 10 16 N/A
7:51 am 07:51 Sunny 80 26.7 55 12.8 42 42 ESE 12 19 29.90 1013 10 16 N/A
8:51 am 08:51 Sunny 82 27.8 60 15.6 47 47 SE 13 20 29.92 1013 10 16 N/A
9:51 am 09:51 Sunny 87 30.6 59 15 39 39 SE 8 13 29.91 1013 10 16 N/A
10:51 am 10:51 Sunny 90 32.2 57 13.9 33 33 S 5 7 29.90 1013 10 16 N/A
11:51 am 11:51 Sunny 92 33.3 58 14.4 32 32 N N/A 29.88 1012 10 16 N/A
12:51 pm 12:51 Sunny 95 35 55 12.8 26 26 VRB 5 7 29.85 1011 10 16 N/A
1:51 pm 13:51 Mostly Sunny 98 36.7 57 13.9 25 25 N N/A 29.81 1010 10 16 N/A
2:51 pm 14:51 Mostly Sunny 97 36.1 51 10.6 21 21 ESE 8 13 29.80 1009 10 16 N/A
3:51 pm 15:51 Sunny 99 37.2 52 11.1 21 21 SE 14 22 29.78 1008 10 16 N/A
4:51 pm 16:51 Sunny 99 37.2 51 10.6 20 20 SSE 15 24 29.78 1009 10 16 N/A
5:51 pm 17:51 Sunny 95 35 53 11.7 24 24 SE 9 15 29.79 1009 10 16 N/A
6:51 pm 18:51 Clear 90 32.2 53 11.7 28 28 SE 7 11 29.80 1009 10 16 N/A
7:51 pm 19:51 Clear 84 28.9 56 13.3 38 38 ENE 5 7 29.82 1010 10 16 N/A
8:34 pm 20:34 Cloudy with Thunderstorms 87 30.6 52 11.1 30 30 ESE 9 15 29.79 1009 10 16 N/A
8:51 pm 20:51 Mostly Cloudy with Thunderstorms 79 26.1 64 17.8 60 60 SE 8 13 29.88 1012 10 16 0.01 0.25
9:14 pm 21:14 Mostly Cloudy with Light Rain 77 25 67 19.4 71 71 N N/A 29.84 1011 10 16 0.01 0.25
9:51 pm 21:51 Clear 76 24.4 68 20 77 77 NE 9 15 29.87 1012 10 16 0.01 0.25
10:51 pm 22:51 Clear 75 23.9 68 20 79 79 E 3 6 29.87 1012 10 16 N/A
11:51 pm 23:51 Clear 75 23.9 65 18.3 71 71 E 9 15 29.88 1012 10 16 N/A

Powered by AerisWeather